DW6417 Weather Reports


time (UTC)temp
F
wind
direction
speed
knots
gust
knots
rain 1hr
in
rain 24hr
in
rain mn
in
humidity
%
barometer
mb
20260502214628 60 184 0.0 0.9 0.00 0.38 0.38 89 1011.8
20260502214421 60 0 0.0 0.9 0.00 0.38 0.38 89 1011.7
20260502213921 60 0 0.0 0.9 0.00 0.38 0.38 89 1011.6
20260502213628 60 184 0.0 0.0 0.00 0.38 0.38 89 1011.4
20260502213421 60 0 0.0 0.9 0.00 0.38 0.38 89 1011.5
20260502212921 60 0 0.0 0.0 0.00 0.38 0.38 89 1011.4
20260502212628 60 184 0.0 0.0 0.01 0.38 0.38 89 1011.4
20260502212421 60 0 0.0 0.0 0.01 0.38 0.38 89 1011.4
20260502211921 60 0 0.0 0.9 0.01 0.38 0.38 89 1011.4
20260502211628 60 184 0.0 0.9 0.01 0.38 0.38 89 1011.5
20260502211421 60 0 0.0 2.6 0.01 0.38 0.38 89 1011.5
20260502210921 60 184 0.9 4.3 0.01 0.38 0.38 88 1011.5
20260502210629 60 184 1.7 4.3 0.01 0.38 0.38 88 1011.7
20260502210421 60 184 0.9 4.3 0.01 0.38 0.38 88 1011.7
20260502205422 60 184 0.9 2.6 0.02 0.38 0.38 88 1011.8
20260502204921 60 0 0.0 2.6 0.02 0.38 0.38 88 1011.8
20260502204628 60 184 0.0 0.9 0.02 0.38 0.38 88 1011.7
20260502204421 60 0 0.0 0.9 0.02 0.38 0.38 88 1011.7
20260502203921 60 185 0.9 4.3 0.02 0.38 0.38 88 1011.8
20260502203628 61 184 1.7 4.3 0.02 0.38 0.38 88 1011.6
20260502203422 61 185 0.9 4.3 0.02 0.38 0.38 88 1011.6
20260502202921 61 186 0.9 3.5 0.02 0.38 0.38 87 1011.7
20260502202628 61 185 0.9 3.5 0.02 0.37 0.37 88 1011.8
20260502201921 61 186 1.7 3.5 0.02 0.37 0.37 87 1012.1
20260502201628 61 185 0.9 3.5 0.02 0.37 0.37 87 1012.3
20260502201421 61 186 1.7 3.5 0.02 0.37 0.37 87 1012.1
20260502200921 61 186 0.9 4.3 0.02 0.37 0.37 87 1012.3
20260502200628 61 185 0.9 4.3 0.02 0.37 0.37 86 1012.4
20260502200421 61 186 0.9 4.3 0.02 0.37 0.37 86 1012.4
20260502195921 61 187 1.7 4.3 0.02 0.37 0.37 86 1012.5
20260502195628 61 186 1.7 4.3 0.02 0.36 0.36 86 1012.4
20260502195421 61 189 1.7 4.3 0.02 0.36 0.36 86 1012.4
20260502194921 61 190 0.9 4.3 0.01 0.35 0.35 86 1012.7
20260502194628 61 190 0.9 2.6 0.01 0.35 0.35 85 1012.9
20260502194421 61 191 0.9 4.3 0.01 0.35 0.35 85 1012.9
20260502193921 61 190 0.9 2.6 0.01 0.35 0.35 84 1013.0
20260502192921 61 192 1.7 5.2 0.08 0.35 0.35 84 1013.2
20260502192421 61 192 0.9 3.5 0.14 0.35 0.35 85 1013.4
20260502191628 62 192 0.0 1.7 0.14 0.35 0.35 84 1013.2
20260502190921 62 190 0.9 5.2 0.14 0.35 0.35 83 1013.1
20260502190628 62 192 0.9 5.2 0.14 0.35 0.35 83 1013.0
20260502190421 62 170 1.7 5.2 0.14 0.35 0.35 83 1013.0
20260502185628 62 159 1.7 5.2 0.14 0.35 0.35 82 1012.9
20260502185421 62 159 1.7 5.2 0.14 0.35 0.35 82 1013.0
20260502184921 63 145 1.7 8.7 0.15 0.35 0.35 82 1013.0
20260502184628 63 138 2.6 8.7 0.17 0.35 0.35 81 1012.8
20260502184421 63 140 2.6 8.7 0.17 0.35 0.35 81 1012.9
20260502183921 64 149 2.6 8.7 0.20 0.35 0.35 81 1012.7
20260502183628 65 163 2.6 8.7 0.22 0.35 0.35 83 1012.8
20260502183421 65 170 2.6 8.7 0.22 0.35 0.35 83 1012.8
20260502182921 65 185 1.7 7.8 0.17 0.28 0.28 84 1012.9
20260502182420 66 199 1.7 6.1 0.17 0.20 0.20 85 1012.9
20260502181921 66 254 1.7 4.3 0.20 0.20 0.20 84 1012.7
20260502181421 66 333 1.7 2.6 0.20 0.20 0.20 83 1012.6
20260502180921 67 330 1.7 4.3 0.20 0.20 0.20 83 1012.2
20260502180628 67 338 2.6 4.3 0.20 0.20 0.20 83 1012.1
20260502180421 67 221 1.7 4.3 0.20 0.20 0.20 83 1012.1
20260502170421 75 135 1.7 5.2 0.00 0.00 0.00 60 1011.6
20260502163921 75 198 0.9 4.3 0.00 0.00 0.00 57 1012.2
20260502163628 75 196 1.7 4.3 0.00 0.00 0.00 56 1012.3
20260502162921 75 200 0.9 2.6 0.00 0.00 0.00 55 1012.3
20260502162421 76 201 0.9 2.6 0.00 0.00 0.00 54 1012.4
20260502161921 76 201 0.9 2.6 0.00 0.00 0.00 52 1012.5
20260502161628 76 201 0.9 2.6 0.00 0.00 0.00 49 1012.5
20260502160921 76 200 1.7 3.5 0.00 0.00 0.00 51 1012.6
20260502160628 76 199 1.7 3.5 0.00 0.00 0.00 51 1012.5
20260502160421 76 201 1.7 3.5 0.00 0.00 0.00 51 1012.6
20260502151921 76 185 0.9 4.3 0.00 0.00 0.00 54 1013.1
20260502151629 76 180 0.9 3.5 0.00 0.00 0.00 53 1013.1
20260502151422 76 197 0.9 3.5 0.00 0.00 0.00 53 1013.1
20260502150628 76 201 0.9 3.5 0.00 0.00 0.00 54 1013.4
20260502150421 76 201 0.9 3.5 0.00 0.00 0.00 54 1013.4
20260502130628 80 252 4.3 9.6 0.00 0.00 0.00 47 1014.7
20260502130421 80 264 3.5 10.4 0.00 0.00 0.00 47 1014.7
20260502123628 79 221 3.5 7.8 0.00 0.00 0.00 47 1015.2
20260502123422 79 203 3.5 7.8 0.00 0.00 0.00 47 1015.2
20260502122921 80 204 4.3 8.7 0.00 0.00 0.00 46 1015.3
20260502122422 80 204 3.5 8.7 0.00 0.00 0.00 46 1015.2
20260502121921 80 244 4.3 13.0 0.00 0.00 0.00 48 1015.3
20260502121629 80 301 5.2 13.0 0.00 0.00 0.00 46 1015.4
20260502121421 80 239 5.2 13.0 0.00 0.00 0.00 46 1015.4
20260502120921 79 202 4.3 8.7 0.00 0.00 0.00 47 1015.3
20260502120628 79 124 3.5 7.8 0.00 0.00 0.00 47 1015.3
20260502120422 79 195 3.5 8.7 0.00 0.00 0.00 47 1015.4
20260502115628 79 195 2.6 6.1 0.00 0.00 0.00 48 1015.6
20260502114921 79 203 3.5 9.6 0.00 0.00 0.00 48 1015.7
20260502114628 78 236 3.5 9.6 0.00 0.00 0.00 49 1015.7
20260502114421 78 184 3.5 9.6 0.00 0.00 0.00 49 1015.7
20260502113922 78 186 3.5 7.8 0.00 0.00 0.00 49 1015.8
20260502113628 78 178 2.6 7.8 0.00 0.00 0.00 50 1015.9
20260502113421 78 209 2.6 7.8 0.00 0.00 0.00 50 1015.9
20260502112921 78 221 2.6 7.0 0.00 0.00 0.00 50 1015.9
20260502112630 77 225 2.6 7.0 0.00 0.00 0.00 51 1015.9
20260502112421 77 234 3.5 7.8 0.00 0.00 0.00 51 1015.9
20260502111921 77 210 4.3 11.3 0.00 0.00 0.00 51 1015.9
20260502111421 76 213 4.3 11.3 0.00 0.00 0.00 50 1015.9
20260502110921 76 218 4.3 8.7 0.00 0.00 0.00 50 1016.0
20260502110628 76 215 4.3 8.7 0.00 0.00 0.00 50 1016.1
20260502110421 76 208 5.2 13.0 0.00 0.00 0.00 50 1016.1
20260502105921 76 230 5.2 13.0 0.00 0.00 0.00 49 1016.2
20260502105628 76 263 4.3 11.3 0.00 0.00 0.00 50 1016.2
20260502105421 76 234 3.5 11.3 0.00 0.00 0.00 50 1016.2
20260502104922 76 238 4.3 10.4 0.00 0.00 0.00 49 1016.5
20260502104628 76 210 4.3 10.4 0.00 0.00 0.00 51 1016.4
20260502104421 76 237 3.5 10.4 0.00 0.00 0.00 51 1016.4
20260502103921 75 234 3.5 8.7 0.00 0.00 0.00 49 1016.4
20260502103628 75 253 3.5 8.7 0.00 0.00 0.00 50 1016.4
20260502103421 75 225 3.5 8.7 0.00 0.00 0.00 50 1016.4
20260502102921 75 206 3.5 7.8 0.00 0.00 0.00 49 1016.5
20260502102628 75 211 2.6 7.8 0.00 0.00 0.00 50 1016.6
20260502102421 75 222 3.5 9.6 0.00 0.00 0.00 50 1016.5
20260502101628 74 248 3.5 6.1 0.00 0.00 0.00 50 1016.8
20260502100922 74 246 2.6 6.1 0.00 0.00 0.00 50 1016.8
20260502100628 74 249 2.6 5.2 0.00 0.00 0.00 53 1016.8
20260502090921 70 178 2.6 6.1 0.00 0.00 0.00 53 1017.1
20260502071421 63 173 1.7 5.2 0.00 0.00 0.00 54 1017.4
20260502070922 62 164 0.9 2.6 0.00 0.00 0.00 56 1017.5
20260502070628 61 164 0.9 2.6 0.00 0.00 0.00 58 1017.4
20260502065922 61 163 0.9 3.5 0.00 0.00 0.00 59 1017.4
20260502065628 60 163 1.7 3.5 0.00 0.00 0.00 60 1017.4
20260502065421 60 163 0.9 3.5 0.00 0.00 0.00 60 1017.5
20260502064923 60 162 0.9 2.6 0.00 0.00 0.00 60 1017.5
20260502064628 59 163 0.0 1.7 0.00 0.00 0.00 61 1017.4
20260502064421 59 163 0.9 1.7 0.00 0.00 0.00 61 1017.4
20260502063422 58 163 0.9 2.6 0.00 0.00 0.00 64 1017.4
20260502062628 57 163 0.0 0.9 0.00 0.00 0.00 64 1017.3
20260502062422 57 163 0.9 2.6 0.00 0.00 0.00 64 1017.3
20260502061921 57 163 0.9 2.6 0.00 0.00 0.00 65 1017.4
20260502061422 56 162 0.9 2.6 0.00 0.00 0.00 66 1017.5
20260502060922 56 162 0.9 2.6 0.00 0.00 0.00 67 1017.4
20260502060628 55 163 0.9 2.6 0.00 0.00 0.00 68 1017.4
20260502060422 55 163 0.9 2.6 0.00 0.00 0.00 68 1017.5
20260502055923 55 163 0.9 2.6 0.00 0.00 0.00 68 1017.4
20260502055421 54 0 0.0 1.7 0.00 0.00 0.00 70 1017.2
20260502054422 51 0 0.0 0.9 0.00 0.00 0.00 73 1017.0
20260502053923 50 0 0.0 1.7 0.00 0.00 0.00 74 1017.1
20260502053628 49 163 0.9 1.7 0.00 0.00 0.00 76 1017.2
20260502053422 49 0 0.0 1.7 0.00 0.00 0.00 76 1017.2
20260502052922 49 0 0.0 0.9 0.00 0.00 0.00 75 1017.3
20260502052424 48 0 0.0 0.9 0.00 0.00 0.00 76 1017.2
20260502051922 47 0 0.0 0.0 0.00 0.00 0.00 76 1017.2
20260502051628 47 163 0.0 0.0 0.00 0.00 0.00 77 1017.2
20260502051423 47 0 0.0 0.9 0.00 0.00 0.00 77 1017.2
20260502050628 46 163 0.0 0.9 0.00 0.00 0.00 80 1017.0
20260502045922 45 0 0.0 0.0 0.00 0.00 0.00 79 1017.1
20260502045628 45 163 0.0 0.0 0.00 0.00 0.00 79 1017.2
20260502044628 45 163 0.0 0.9 0.00 0.00 0.00 79 1017.2
20260502044422 45 0 0.0 0.9 0.00 0.00 0.00 79 1017.2
20260502043922 44 0 0.0 0.9 0.00 0.00 0.00 79 1017.2
20260502043628 44 163 0.0 0.0 0.00 0.00 0.00 79 1017.2
20260502043421 44 0 0.0 0.0 0.00 0.00 0.00 79 1017.3
20260502042922 44 0 0.0 0.9 0.00 0.00 0.00 79 1017.3
20260502042629 44 163 0.0 0.9 0.00 0.00 0.00 79 1017.2
20260502042422 44 0 0.0 0.9 0.00 0.00 0.00 79 1017.3
20260502041921 44 0 0.0 0.0 0.00 0.00 0.00 79 1017.3
20260502041628 44 163 0.0 0.0 0.00 0.00 0.00 79 1017.4
20260502041422 44 0 0.0 0.0 0.00 0.00 0.00 79 1017.4
20260502040921 44 0 0.0 0.0 0.00 0.00 0.00 79 1017.4
20260502040628 44 163 0.0 0.0 0.00 0.00 0.00 78 1017.4
20260502040422 44 0 0.0 0.0 0.00 0.00 0.00 78 1017.4
20260502035628 44 163 0.0 0.0 0.00 0.00 0.00 78 1017.4
20260502035422 44 0 0.0 0.0 0.00 0.00 0.00 78 1017.4
20260502034922 44 0 0.0 0.0 0.00 0.00 0.00 78 1017.4
20260502034628 44 163 0.0 0.0 0.00 0.00 0.00 78 1017.4
20260502034422 44 0 0.0 0.0 0.00 0.00 0.00 78 1017.5
20260502033922 44 0 0.0 0.0 0.00 0.00 0.00 78 1017.4
20260502033422 44 0 0.0 0.0 0.00 0.00 0.00 78 1017.5
20260502032629 44 163 0.0 0.0 0.00 0.00 0.00 78 1017.4
20260502032422 44 0 0.0 0.9 0.00 0.00 0.00 78 1017.4
20260502031922 44 0 0.0 0.9 0.00 0.00 0.00 78 1017.5
20260502031628 44 163 0.0 0.9 0.00 0.00 0.00 78 1017.5
20260502031422 44 0 0.0 0.9 0.00 0.00 0.00 78 1017.6
20260502030922 45 0 0.0 0.0 0.00 0.00 0.00 78 1017.5
20260502030629 45 163 0.0 0.0 0.00 0.00 0.00 78 1017.6
20260502030422 45 0 0.0 0.0 0.00 0.00 0.00 78 1017.5
20260502025921 45 0 0.0 0.0 0.00 0.00 0.00 78 1017.6
20260502025628 45 163 0.0 0.0 0.00 0.00 0.00 78 1017.5
20260502025422 45 0 0.0 1.7 0.00 0.00 0.00 78 1017.6
20260502024921 45 0 0.0 1.7 0.00 0.00 0.00 78 1017.6
20260502024628 45 163 0.0 1.7 0.00 0.00 0.00 77 1017.6
20260502024421 45 0 0.0 1.7 0.00 0.00 0.00 77 1017.7
20260502023922 45 0 0.0 0.0 0.00 0.00 0.00 77 1017.7
20260502023628 45 163 0.0 0.0 0.00 0.00 0.00 77 1017.8
20260502023422 45 0 0.0 0.0 0.00 0.00 0.00 77 1017.8
20260502022922 45 163 0.9 1.7 0.00 0.00 0.00 77 1017.8
20260502022629 45 163 0.9 1.7 0.00 0.00 0.00 76 1017.9
20260502021922 46 0 0.0 1.7 0.00 0.00 0.00 77 1017.8
20260502021629 46 163 0.0 0.0 0.00 0.00 0.00 76 1017.9
20260502021422 46 0 0.0 0.0 0.00 0.00 0.00 76 1017.8
20260502020922 46 0 0.0 0.0 0.00 0.00 0.00 76 1017.9
20260502020629 46 163 0.0 0.0 0.00 0.00 0.00 76 1017.9
20260502020421 46 0 0.0 0.0 0.00 0.00 0.00 76 1017.9
20260502015422 46 0 0.0 0.0 0.00 0.00 0.00 75 1018.0
20260502014922 46 0 0.0 0.0 0.00 0.00 0.00 75 1018.0
20260502014628 46 163 0.0 0.0 0.00 0.00 0.00 75 1018.0
20260502014422 46 0 0.0 0.0 0.00 0.00 0.00 75 1018.0
20260502013922 47 0 0.0 0.0 0.00 0.00 0.00 75 1018.1
20260502013629 47 163 0.0 0.0 0.00 0.00 0.00 74 1018.1
20260502013422 47 0 0.0 0.0 0.00 0.00 0.00 74 1018.1
20260502012922 47 0 0.0 0.0 0.00 0.00 0.00 74 1018.1
20260502012629 47 163 0.0 0.0 0.00 0.00 0.00 74 1018.1
20260502012422 47 0 0.0 0.0 0.00 0.00 0.00 74 1018.1
20260502011922 47 0 0.0 0.0 0.00 0.00 0.00 74 1018.1
20260502011629 47 163 0.0 0.0 0.00 0.00 0.00 73 1018.1
20260502011422 47 0 0.0 0.0 0.00 0.00 0.00 73 1018.1
20260502010922 48 0 0.0 0.0 0.00 0.00 0.00 73 1018.2
20260502010629 48 163 0.0 0.0 0.00 0.00 0.00 73 1018.2
20260502010422 48 0 0.0 0.0 0.00 0.00 0.00 73 1018.2
20260502005922 48 0 0.0 0.0 0.00 0.00 0.00 73 1018.2
20260502005628 48 163 0.0 0.0 0.00 0.00 0.00 72 1018.3
20260502005422 48 0 0.0 0.0 0.00 0.00 0.00 72 1018.3
20260502004922 48 0 0.0 0.0 0.00 0.00 0.00 72 1018.3
20260502004629 48 163 0.0 0.0 0.00 0.00 0.00 71 1018.4
20260502004422 48 0 0.0 0.0 0.00 0.00 0.00 71 1018.4
20260502003629 49 163 0.0 0.0 0.00 0.00 0.00 71 1018.4
20260502003422 49 0 0.0 0.0 0.00 0.00 0.00 71 1018.4
20260502002922 49 0 0.0 0.9 0.00 0.00 0.00 70 1018.4
20260502002629 49 163 0.0 0.9 0.00 0.00 0.00 70 1018.6
20260502002422 49 0 0.0 0.9 0.00 0.00 0.00 70 1018.5
20260502001922 49 0 0.0 0.0 0.00 0.00 0.00 70 1018.6
20260502001628 49 163 0.0 0.0 0.00 0.00 0.00 70 1018.7
20260502001422 49 0 0.0 0.0 0.00 0.00 0.00 70 1018.7
20260502000922 50 0 0.0 0.0 0.00 0.00 0.00 70 1018.6
20260502000424 50 0 0.0 0.0 0.00 0.00 0.00 69 1018.8
20260501235922 50 0 0.0 0.0 0.00 0.00 0.00 69 1018.9
20260501235629 51 163 0.0 0.0 0.00 0.00 0.00 68 1018.9
20260501235422 51 0 0.0 0.0 0.00 0.00 0.00 68 1018.9
20260501234922 51 0 0.0 0.0 0.00 0.00 0.00 67 1019.0
20260501234628 51 163 0.0 0.0 0.00 0.00 0.00 66 1019.0
20260501233922 51 0 0.0 0.0 0.00 0.00 0.00 66 1019.1
20260501233629 51 163 0.0 0.0 0.00 0.00 0.00 65 1019.1
20260501233422 51 0 0.0 0.0 0.00 0.00 0.00 65 1019.1
20260501232629 52 163 0.0 0.0 0.00 0.00 0.00 64 1019.1
20260501232422 52 0 0.0 0.0 0.00 0.00 0.00 64 1019.2
20260501231922 52 0 0.0 0.0 0.00 0.00 0.00 64 1019.2
20260501231629 53 163 0.0 0.0 0.00 0.00 0.00 64 1019.2
20260501231423 53 0 0.0 0.0 0.00 0.00 0.00 64 1019.2
20260501230922 53 0 0.0 0.0 0.00 0.00 0.00 63 1019.3
20260501230423 53 0 0.0 0.0 0.00 0.00 0.00 62 1019.2
20260501225422 54 0 0.0 0.0 0.00 0.00 0.00 62 1019.3
20260501224923 54 0 0.0 0.0 0.00 0.00 0.00 62 1019.2
20260501224629 55 163 0.0 0.0 0.00 0.00 0.00 62 1019.2
20260501224422 55 0 0.0 0.0 0.00 0.00 0.00 62 1019.3
20260501223922 55 0 0.0 0.0 0.00 0.00 0.00 61 1019.3
20260501223422 56 0 0.0 0.9 0.00 0.00 0.00 60 1019.2
20260501222922 56 0 0.0 1.7 0.00 0.00 0.00 59 1019.3
20260501222629 56 163 0.0 1.7 0.00 0.00 0.00 57 1019.2
20260501222422 56 0 0.0 1.7 0.00 0.00 0.00 57 1019.3
20260501221629 58 163 0.0 0.9 0.00 0.00 0.00 52 1019.2
20260501221422 58 0 0.0 0.9 0.00 0.00 0.00 54 1019.2
20260501220922 58 0 0.0 0.9 0.00 0.00 0.00 52 1019.2
20260501220629 58 163 0.0 0.0 0.00 0.00 0.00 50 1019.3
20260501220422 58 0 0.0 0.9 0.00 0.00 0.00 50 1019.3
20260501215630 59 163 0.0 1.7 0.00 0.00 0.00 49 1019.3
20260501215422 59 163 0.9 1.7 0.00 0.00 0.00 49 1019.3
20260501214922 59 162 0.9 2.6 0.00 0.00 0.00 48 1019.3